Weather Roundup
Issued by NWS

Home | Current Version | Previous Version | Graphics & Text | Print | Product List | Glossary Off
Versions: 1 2 3 4 5 6 7 8 9 10 11 12 13 14 15 16 17 18 19 20 21 22 23 24 25 26 27 28 29 30 31 32 33 34 35 36 37 38 39 40 41 42 43 44 45 46 47 48 49 50

000
NZUS93 KARX 201859
HRRWXR

CURRENT HOURLY OBSERVATIONS ACROSS
MUCH OF THE UPPER MISSISSIPPI VALLEY
NATIONAL WEATHER SERVICE LA CROSSE WI
200 PM CDT MON APR 20 2015


...SOUTHEAST MINNESOTA...


CITY           SKY/WX    TMP DP  RH WIND       PRES   REMARKS
ROCHESTER      CLOUDY    39  30  70 W24G32    29.52S WCI  28
ROCHESTER/MAYO CLOUDY    39  29  66 NW24G32   29.51S WCI  28
WINONA         CLOUDY    41  32  70 NW18G25   29.51R
AUSTIN         CLOUDY    43  30  61 NW25G36   29.54S
ALBERT LEA     MIX PCPN  43  30  61 W15G24    29.56S
DODGE CENTER   CLOUDY    41  30  65 NW22G29   29.52S
PRESTON        CLOUDY    39  30  70 NW29G35   29.53R WCI  27
OWATONNA       CLOUDY    43  28  56 NW25      29.54F
FARIBAULT      CLOUDY    43  30  61 NW14G24   29.54S
$$

...ELSEWHERE IN MINNESOTA...


CITY           SKY/WX    TMP DP  RH WIND       PRES   REMARKS
MINNEAPOLIS    CLOUDY    42  27  55 W17G28    29.52S
INTNL FALLS    CLOUDY    32  26  78 W14G22    29.37F WCI  22
DULUTH         CLOUDY    36  27  69 W24G33    29.35S WCI  24
RED WING       CLOUDY    43  28  56 NW9G17    29.50S
REDWOOD FALLS  CLOUDY    41  31  67 NW24G31   29.61S
MANKATO        CLOUDY    43  27  52 W25G38    29.57R
WORTHINGTON    CLOUDY    45  25  45 NW26G33   29.64S
FAIRMONT       PTSUNNY   43  30  61 NW22G28   29.61F
$$

...SOUTHWEST WISCONSIN...


CITY           SKY/WX    TMP DP  RH WIND       PRES   REMARKS
LA CROSSE      CLOUDY    43  31  62 W22G29    29.48R
PRAIRIE DU CHI CLOUDY    43  31  63 NW22G29   29.51S
BOSCOBEL       CLOUDY    44  32  62 W12       29.50R
LONE ROCK      NOT AVBL
PLATTEVILLE    CLOUDY    42  35  76 W25       29.50R
FORT MC COY    CLOUDY    41  32  69 W13G22    29.45S
VIROQUA        CLOUDY    38  32  77 NW18G30   29.46S WCI  29
WIS DELLS      CLOUDY    42  35  76 W15G22    29.40S
$$

...ELSEWHERE IN WISCONSIN...


CITY           SKY/WX    TMP DP  RH WIND       PRES   REMARKS
MILWAUKEE      CLOUDY    46  35  65 W22G35    29.38R
MADISON        CLOUDY    44  35  70 W16G24    29.42R
GREEN BAY      LGT RAIN  42  38  85 W21G28    29.29R
EAU CLAIRE     CLOUDY    40  30  67 W18G28    29.44R WCI  31
BLACK RVR FLS  CLOUDY    40  31  69 W10G29    29.44R WCI  34
MEDFORD        CLOUDY    36  34  90 W15G26    29.34S WCI  27
WAUSAU         LGT RAIN  39  35  86 W18       29.31R WCI  30
WIS RAPIDS     CLOUDY    39  34  82 W14G26    29.39R WCI  31
MARSHFIELD     CLOUDY    39  33  79 W24G30    29.37R WCI  28
RICE LAKE      CLOUDY    38  29  71 NW15G22   29.44S WCI  29
$$

...NORTHEAST IOWA...


CITY           SKY/WX    TMP DP  RH WIND       PRES   REMARKS
DECORAH        CLOUDY    41  30  65 NW21G36   29.51S
MASON CITY     CLOUDY    44  32  62 NW26G37   29.61S
CHARLES CITY   CLOUDY    43  34  70 NW24G35   29.58R
OELWEIN        CLOUDY    43  32  65 NW31G40   29.56S
$$

...ELSEWHERE IN IOWA...


CITY           SKY/WX    TMP DP  RH WIND       PRES   REMARKS
DES MOINES     PTSUNNY   53  29  39 NW24G43   29.68F
IOWA CITY      CLOUDY    46  32  58 NW22G36   29.63R
FORT DODGE     CLOUDY    48  30  49 W15G25    29.65F
$$

...NORTHERN ILLINOIS...


CITY           SKY/WX    TMP DP  RH WIND       PRES   REMARKS
CHICAGO-OHARE  DRIZZLE   46  39  76 W15G24    29.46R
CHICAGO-MIDWAY LGT RAIN  47  40  76 W18G26    29.48R
MOLINE         CLOUDY    48  31  51 NW29G37   29.58R
ROCKFORD       CLOUDY    45  35  68 W20G30    29.50R
PEORIA         CLOUDY    53  35  50 W30G38    29.61R
$$

NOTE: "FAIR" INDICATES FEW OR NO CLOUDS BELOW 12,000 FEET WITH NO
SIGNIFICANT WEATHER AND/OR OBSTRUCTIONS TO VISIBILITY. WIND
SPEEDS ARE IN MILES-PER-HOUR.



USA.gov is the U.S. government's official web portal to all federal, state and local government web resources and services.